Retour au catalogue

STARLINK-32290

ActifCommunicationsVLEO
NORAD 60359·PAYLOAD·🇺🇸 United States

Lancé Aug 4, 2024 depuis Vandenberg Space Force Base

Loading…

Prochains Passages (prochaines 24 heures)

TLE

FraisSource: CelesTrak SupGP

Époque: Sep 14, 2026, 21:28 UTC

1 60359C 24138E   26257.89493056 -.00060378  00000+0 -17834-2 0  2574
2 60359  53.1580 149.6516 0001166  94.1879 191.0220 15.34429606    17

Suivez STARLINK-32290 en temps réel avec AllMySat

Download on the App Store